TimeCDT,TemperatureF,Dew PointF,Humidity,Sea Level PressureIn,VisibilityMPH,Wind Direction,Wind SpeedMPH,Gust SpeedMPH,PrecipitationIn,Events,Conditions,WindDirDegrees,DateUTC
12:54 AM,64.9,57.9,78,29.98,10.0,ENE,5.8,-,N/A,,Scattered Clouds,70,2013-07-18 05:54:00
1:54 AM,64.0,57.9,80,29.94,10.0,NE,4.6,-,N/A,,Clear,50,2013-07-18 06:54:00
2:54 AM,62.1,57.9,86,29.92,10.0,NNE,4.6,-,N/A,,Clear,20,2013-07-18 07:54:00
3:54 AM,61.0,57.9,90,29.93,10.0,North,6.9,-,N/A,,Clear,350,2013-07-18 08:54:00
4:54 AM,60.1,57.9,93,29.91,10.0,North,8.1,-,N/A,,Clear,350,2013-07-18 09:54:00
5:54 AM,60.1,57.9,93,29.91,10.0,North,6.9,-,N/A,,Clear,360,2013-07-18 10:54:00
6:54 AM,61.0,57.9,90,29.90,9.0,NE,3.5,-,N/A,,Clear,50,2013-07-18 11:54:00
7:54 AM,63.0,57.9,84,29.88,10.0,East,4.6,-,N/A,,Clear,100,2013-07-18 12:54:00
8:54 AM,64.9,59.0,81,29.88,10.0,SE,4.6,-,N/A,,Clear,130,2013-07-18 13:54:00
9:54 AM,68.0,60.1,76,29.88,10.0,WSW,4.6,-,N/A,,Clear,250,2013-07-18 14:54:00
10:54 AM,72.0,63.0,73,29.86,10.0,WNW,8.1,-,N/A,,Clear,290,2013-07-18 15:54:00
11:54 AM,75.0,63.0,66,29.86,10.0,WNW,10.4,-,N/A,,Clear,300,2013-07-18 16:54:00
12:54 PM,77.0,64.9,66,29.84,10.0,West,8.1,-,N/A,,Clear,270,2013-07-18 17:54:00
1:54 PM,79.0,66.0,64,29.82,10.0,West,11.5,-,N/A,,Clear,280,2013-07-18 18:54:00
2:54 PM,82.0,68.0,62,29.80,10.0,West,15.0,19.6,N/A,,Scattered Clouds,260,2013-07-18 19:54:00
3:54 PM,82.9,66.9,58,29.79,10.0,WSW,15.0,21.9,N/A,,Clear,250,2013-07-18 20:54:00
4:54 PM,84.9,66.0,53,29.78,10.0,WSW,18.4,25.3,N/A,,Clear,250,2013-07-18 21:54:00
5:54 PM,84.0,60.1,44,29.78,10.0,WSW,19.6,32.2,N/A,,Clear,240,2013-07-18 22:54:00
6:54 PM,84.0,55.9,38,29.76,10.0,WSW,21.9,29.9,N/A,,Clear,250,2013-07-18 23:54:00
7:54 PM,82.0,59.0,45,29.77,10.0,West,19.6,28.8,N/A,,Partly Cloudy,280,2013-07-19 00:54:00
8:54 PM,75.0,59.0,57,29.82,10.0,West,26.5,36.8,N/A,,Clear,280,2013-07-19 01:54:00
9:54 PM,71.1,55.0,57,29.86,10.0,West,17.3,26.5,N/A,,Clear,280,2013-07-19 02:54:00
10:54 PM,66.9,52.0,59,29.89,10.0,WNW,17.3,27.6,N/A,,Clear,290,2013-07-19 03:54:00
11:54 PM,64.9,55.0,70,29.91,10.0,West,13.8,-,N/A,,Clear,280,2013-07-19 04:54:00